User: anonymous   Login
Location: Unspecified
(0.0000°N, 0.0000°E)
Time: 15:21:45
(UTC+01:00)
Language:

Hamsat - Orbit

View from above orbital plane
View from above orbital plane
View from above satellite
View from above satellite

Ground track
Ground track

The orbit data is extracted from the following two-line orbital elements,

1 28650U 05017B   14351.05861974  .00006146  00000-0  69851-3 0  9324
2 28650 097.5651 347.0155 0022902 274.4926 085.3675 14.86412224520386
Epoch (UTC): 17 December 2014 01:24:24
Eccentricity: 0.0022902
inclination: 97.5651°
perigee height: 593 km
apogee height: 625 km
right ascension of ascending node: 347.0155°
argument of perigee: 274.4926°
revolutions per day: 14.86412224
mean anomaly at epoch: 85.3675°
orbit number at epoch: 52038

The dashed part of the orbit path shows where the satellite is in the earth's shadow,  

DLR